User: anonymous   Login
Location: Bouchavesnes-Bergen
(49.9859°N, 2.9203°E)
Time: 17:09:37
(UTC+00:00)
Language:

Resurs 1-4 Rocket - Orbit

View from above orbital plane
View from above orbital plane
View from above satellite
View from above satellite

Ground track
Ground track

The orbit data is extracted from the following two-line orbital elements,

1 25400U 98043G   21125.40577351 -.00000011  00000-0  13952-4 0  9995
2 25400  98.6380  61.8879 0010924 114.1881 246.0442 14.25475189186885
Epoch (UTC): 05 May 2021 09:44:18
Eccentricity: 0.0010924
inclination: 98.6380°
perigee height: 799 km
apogee height: 815 km
right ascension of ascending node: 61.8879°
argument of perigee: 114.1881°
revolutions per day: 14.25475189
mean anomaly at epoch: 246.0442°
orbit number at epoch: 18688

The dashed part of the orbit path shows where the satellite is in the earth's shadow,  

DLR